EST,Max TemperatureF,Mean TemperatureF,Min TemperatureF,Max Dew PointF,MeanDew PointF,Min DewpointF,Max Humidity, Mean Humidity, Min Humidity, Max Sea Level PressureIn, Mean Sea Level PressureIn, Min Sea Level PressureIn, Max VisibilityMiles, Mean VisibilityMiles, Min VisibilityMiles, Max Wind SpeedMPH, Mean Wind SpeedMPH, Max Gust SpeedMPH,PrecipitationIn, CloudCover, Events, WindDirDegrees
2011-11-1,84,79,73,72,70,68,87,76,65,30.06,30.01,29.97,10,10,10,21,14,28,0.00,4,,35
2011-11-2,83,79,74,72,70,63,93,79,64,30.09,30.04,30.01,10,10,10,23,17,30,0.00,3,,39
2011-11-3,82,76,70,68,65,62,84,69,54,30.07,30.02,29.97,10,10,10,16,8,20,0.00,0,,53
2011-11-4,80,75,69,70,65,60,90,72,54,29.96,29.92,29.86,10,10,10,18,9,29,0.00,3,,310
2011-11-5,75,69,62,66,59,54,84,69,53,30.00,29.96,29.93,10,10,10,17,9,25,0.00,3,,11
2011-11-6,80,75,70,70,68,66,87,78,69,30.07,30.03,29.97,10,9,2,23,13,30,0.08,6,Rain,40
2011-11-7,81,77,72,68,66,62,84,69,54,30.10,30.05,30.01,10,10,10,20,12,24,0.00,1,,41
2011-11-8,80,76,71,68,67,64,90,74,58,30.04,30.00,29.96,10,10,10,15,8,20,T,1,,20
2011-11-9,80,75,70,70,68,65,90,79,67,30.02,29.95,29.91,10,10,10,13,8,18,0.00,0,,351
2011-11-10,78,75,71,68,63,59,84,71,58,29.97,29.93,29.89,10,10,10,14,8,20,0.00,0,,330
2011-11-11,74,71,68,64,61,59,84,73,61,30.13,30.04,29.94,10,10,10,18,12,24,0.00,2,,15
2011-11-12,79,73,67,65,63,61,87,73,58,30.19,30.15,30.10,10,10,10,20,14,26,0.00,1,,43
2011-11-13,82,77,71,71,68,65,93,78,62,30.17,30.11,30.07,10,10,10,17,11,24,0.00,4,,48
2011-11-14,84,79,73,76,73,71,94,84,74,30.11,30.06,30.00,10,10,9,18,9,24,0.00,4,,58
2011-11-15,85,81,77,79,76,75,94,87,79,30.05,30.01,29.99,10,10,10,9,6,14,0.00,2,,115
2011-11-16,85,81,76,76,75,73,91,81,70,30.04,30.01,29.96,10,10,10,13,7,18,0.00,1,,110
2011-11-17,85,81,76,77,75,73,100,87,74,30.06,30.01,29.96,10,9,1,8,4,12,0.21,4,Rain,106
2011-11-18,83,80,76,76,73,71,100,85,69,30.11,30.06,30.02,10,10,10,17,10,24,0.01,4,,46
2011-11-19,83,80,77,73,71,69,82,74,65,30.16,30.11,30.07,10,10,10,20,13,26,T,3,Rain,83
2011-11-20,84,81,77,75,73,72,88,79,69,30.18,30.13,30.09,10,10,9,16,10,22,T,3,,69
2011-11-21,85,81,77,75,72,68,85,78,70,30.18,30.13,30.08,10,10,10,15,10,22,T,1,,89
2011-11-22,83,80,76,70,68,65,76,69,62,30.15,30.11,30.07,10,10,10,13,8,20,0.00,2,,89
2011-11-23,86,80,73,72,70,67,87,73,59,30.12,30.07,30.03,10,10,10,12,5,17,0.00,3,,148
2011-11-24,81,77,73,72,69,63,87,74,60,30.13,30.08,30.04,10,10,10,24,12,30,0.00,3,,29
2011-11-25,81,78,74,62,60,57,68,57,45,30.16,30.12,30.08,10,10,10,22,15,29,0.00,3,,68
2011-11-26,82,78,74,65,60,55,69,57,45,30.16,30.09,30.06,10,10,10,20,11,26,0.00,2,,80
2011-11-27,83,79,75,66,64,61,64,60,55,30.06,30.01,29.96,10,10,10,15,10,23,T,1,,101
2011-11-28,83,77,71,71,68,64,87,76,64,29.95,29.93,29.88,10,10,10,17,7,25,0.00,3,,163
2011-11-29,77,73,69,68,63,54,90,72,54,30.04,29.98,29.94,10,10,10,17,11,25,0.00,6,,340
2011-11-30,74,69,64,63,58,56,78,66,53,30.06,30.02,29.97,10,10,10,15,6,21,0.00,2,,357